          11 11  20 20.29  -48 14.6   2.857  2.682    22.6 /  27  11.6  133  .95

          12 11  20 21.32  -47 54.5   2.859  2.672    22.8 /  28  11.5  143  .90

          13 11  20 22.37  -47 34.3   2.860  2.662    22.9 /  28  11.5  151  .84

          14 11  20 23.43  -47 14.1   2.862  2.652    23.0 /  29  11.5  157  .76

          15 11  20 24.51  -46 53.9   2.864  2.642    23.2 /  29  11.5  158  .67

          16 11  20 25.61  -46 33.6   2.866  2.632    23.3 /  30  11.5  153  .57

          17 11  20 26.72  -46 13.4   2.868  2.622    23.5 /  30  11.5  144  .47

          18 11  20 27.85  -45 53.0   2.869  2.612    23.6 /  31  11.5  133  .37

          19 11  20 28.99  -45 32.7   2.871  2.602    23.7 /  31  11.4  122  .26

          20 11  20 30.14  -45 12.3   2.873  2.593    23.9 /  31  11.4  109  .17

          21 11  20 31.31  -44 51.9   2.875  2.583    24.0 /  32  11.4   96  .09

          22 11  20 32.50  -44 31.4   2.876  2.573    24.2 /  32  11.4   82  .03

          23 11  20 33.69  -44 11.0   2.878  2.563    24.3 /  33  11.4   68  .00

          24 11  20 34.90  -43 50.4   2.879  2.553    24.5 /  33  11.4   54  .00

          25 11  20 36.13  -43 29.9   2.881  2.543    24.6 /  33  11.4   41  .03

          26 11  20 37.36  -43 09.3   2.882  2.533    24.7 /  34  11.3   29  .09

          27 11  20 38.61  -42 48.7   2.884  2.523    24.9 /  34  11.3   20  .17

          28 11  20 39.86  -42 28.0   2.885  2.514    25.0 /  34  11.3   19  .27

          29 11  20 41.13  -42 07.3   2.886  2.504    25.2 /  35  11.3   26  .37

          30 11  20 42.41  -41 46.6   2.887  2.494    25.3 /  35  11.3   36  .47

     Dec.  1 11  20 43.70  -41 25.8   2.889  2.484    25.5 /  35  11.3   47  .58

NAKANO

         **** Don't distribute anyone except personal use only ****

                (C) Copyright 2003 OAA/ComputingSection

write mail from CFAD0::NAKANO on 2003-11-02 03:02:56(JST).



   C/2003 T3 (Tabur)                                                     

T 2004 Apr. 24.60761 TT                                 Nakano

q   1.4180260            (2000.0)            P               Q

                   Peri.   44.76033     +0.78693569     -0.59797016

                   Node   348.47186     +0.06674667     +0.32770632

e   1.0            Incl.   49.60184     +0.61341429     +0.73146446

From 24 observations 2003 Oct. 14-17.



NAKANO

         **** Don't distribute anyone except personal use only ****

                (C) Copyright 2003 OAA/ComputingSection

write mail from CFAD0::NAKANO on 2003-10-19 02:58:01(JST).

 

戻ります。